Location: Newport
(44.6370°N, 124.0520°W)
Time: 11:27:52
(UTC-07:00)

Tiangong 2 - Pass Details

Date: 15 October 2017
Orbit: 388 x 392 km, 42.8° (Epoch: 19 October)

Event Time Altitude Azimuth Distance (km) Brightness Sun altitude
Exits shadow 05:40:28 56° 140° (SE) 469 1.5 -20.6°
Drops below altitude 10° 05:43:15 10° 99° (E) 1,421 5.0 -20.1°
Sets 05:45:21 0° 96° (E) 2,277 6.4 -19.7°
